FW4072 Weather Reports


Display with metric or nautical units.
time (UTC)temp
F
wind
direction
speed
MPH
gust
MPH
rain 1hr
in
rain 24hr
in
rain mn
in
humidity
%
barometer
mb
20260506153904 78 113 1.0 3.0 0.00 0.00 0.00 1013.9
20260506152101 78 0.0 2.0 0.00 0.00 0.00 1013.9
20260506151201 79 113 1.0 2.0 0.00 0.00 0.00 1013.9
20260506150304 79 0.0 2.0 0.00 0.00 0.00 1013.9
20260506145359 79 113 1.0 2.0 0.00 0.00 0.00 1013.9
20260506144519 79 135 2.0 4.0 0.00 0.00 0.00 1013.9
20260506143600 80 0.0 2.0 0.00 0.00 0.00 1013.9
20260506142657 81 135 1.0 3.0 0.00 0.00 0.00 1013.9
20260506141758 82 158 2.0 5.0 0.00 0.00 0.00 1013.9
20260506140858 85 118 2.0 6.0 0.00 0.00 0.00 1013.9
20260506135050 86 158 1.0 4.0 0.00 0.00 0.00 1013.8
20260506134149 86 158 2.0 5.0 0.00 0.00 0.00 1013.9
20260506133250 86 158 1.0 2.0 0.00 0.00 0.00 1013.9
20260506132348 86 158 1.0 3.0 0.00 0.00 0.00 1013.9
20260506131447 87 135 1.0 2.0 0.00 0.00 0.00 1014.0
20260506130548 87 135 2.0 4.0 0.00 0.00 0.00 1014.2
20260506125638 87 135 3.0 7.0 0.00 0.00 0.00 1014.1
20260506124738 87 158 1.0 4.0 0.00 0.00 0.00 1014.1
20260506123919 87 129 2.0 4.0 0.00 0.00 0.00 1014.4
20260506122036 87 0.0 1.0 0.00 0.00 0.00 1014.3
20260506121135 87 0.0 2.0 0.00 0.00 0.00 1014.6
20260506120255 87 158 1.0 4.0 0.00 0.00 0.00 1014.5
20260506115334 87 135 1.0 2.0 0.00 0.00 0.00 1014.6
20260506114435 88 135 1.0 2.0 0.00 0.00 0.00 1014.7
20260506113532 89 0.0 2.0 0.00 0.00 0.00 1014.7
20260506112632 89 135 2.0 3.0 0.00 0.00 0.00 1014.6
20260506111726 88 135 1.0 2.0 0.00 0.00 0.00 1014.7
20260506110826 88 142 2.0 4.0 0.00 0.00 0.00 1014.9
20260506105026 88 113 2.0 4.0 0.00 0.00 0.00 1015.0
20260506104124 88 135 2.0 4.0 0.00 0.00 0.00 1015.0
20260506103225 87 135 1.0 2.0 0.00 0.00 0.00 1015.0
20260506102323 87 135 1.0 2.0 0.00 0.00 0.00 1015.1
20260506101422 87 135 1.0 2.0 0.00 0.00 0.00 1015.0
20260506100521 86 135 1.0 2.0 0.00 0.00 0.00 1014.9
20260506095620 87 135 1.0 3.0 0.00 0.00 0.00 1015.0
20260506094720 87 135 2.0 4.0 0.00 0.00 0.00 1015.1
20260506093814 87 135 2.0 5.0 0.00 0.00 0.00 1015.3
20260506092913 86 113 2.0 5.0 0.00 0.00 0.00 1015.4
20260506091132 86 135 2.0 5.0 0.00 0.00 0.00 1015.3
20260506090212 85 135 1.0 4.0 0.00 0.00 0.00 1015.3
20260506085313 85 135 1.0 3.0 0.00 0.00 0.00 1015.3
20260506084411 84 135 4.0 6.0 0.00 0.00 0.00 1015.4
20260506083530 84 158 2.0 4.0 0.00 0.00 0.00 1015.2
20260506082629 83 158 2.0 5.0 0.00 0.00 0.00 1015.2
20260506081709 83 158 3.0 7.0 0.00 0.00 0.00 1015.1
20260506080808 82 142 1.0 4.0 0.00 0.00 0.00 1015.2
20260506073221 82 113 2.0 5.0 0.00 0.00 0.00 1015.3
20260506072302 81 113 1.0 2.0 0.00 0.00 0.00 10 1015.3
20260506071401 80 135 1.0 2.0 0.00 0.00 0.00 12 1015.3
20260506070458 78 135 2.0 4.0 0.00 0.00 0.00 13 1015.2
20260506061052 75 0.0 1.0 0.00 0.00 0.00 18 1015.2
20260506060121 74 135 1.0 2.0 0.00 0.00 0.00 20 1015.1
20260506050734 67 135 1.0 2.0 0.00 0.00 0.00 32 1015.1
20260506044911 62 113 1.0 2.0 0.00 0.00 0.00 43 1015.0
20260506043110 59 0.0 0.0 0.00 0.00 0.00 47 1015.0
20260506042211 57 0.0 1.0 0.00 0.00 0.00 51 1014.9
20260506041309 55 0.0 1.0 0.00 0.00 0.00 53 1014.9
20260506040428 54 0.0 1.0 0.00 0.00 0.00 55 1014.9
20260506035502 53 0.0 1.0 0.00 0.00 0.00 55 1015.0
20260506034622 53 0.0 0.0 0.00 0.00 0.00 55 1015.0
20260506033722 53 0.0 1.0 0.00 0.00 0.00 54 1015.0
20260506032800 52 0.0 1.0 0.00 0.00 0.00 54 1014.9
20260506031900 53 0.0 2.0 0.00 0.00 0.00 53 1014.9
20260506030058 52 0.0 2.0 0.00 0.00 0.00 54 1014.7
20260506025158 51 0.0 2.0 0.00 0.00 0.00 55 1014.6
20260506024257 51 0.0 2.0 0.00 0.00 0.00 55 1014.6
20260506023356 51 0.0 1.0 0.00 0.00 0.00 54 1014.6
20260506022456 51 0.0 1.0 0.00 0.00 0.00 54 1014.7
20260506021550 52 0.0 1.0 0.00 0.00 0.00 54 1014.5
20260506020649 51 0.0 1.0 0.00 0.00 0.00 54 1014.6
20260506015748 51 0.0 2.0 0.00 0.00 0.00 54 1014.5
20260506014908 51 0.0 0.0 0.00 0.00 0.00 54 1014.6
20260506013047 52 0.0 0.0 0.00 0.00 0.00 53 1014.6
20260506012208 52 0.0 1.0 0.00 0.00 0.00 52 1014.7
20260506011238 52 0.0 1.0 0.00 0.00 0.00 51 1014.8
20260506010339 53 0.0 0.0 0.00 0.00 0.00 50 1014.9
20260506005437 54 0.0 0.0 0.00 0.00 0.00 48 1014.8
20260506004556 54 0.0 1.0 0.00 0.00 0.00 48 1014.7
20260506003636 54 0.0 1.0 0.00 0.00 0.00 48 1014.8
20260506002737 54 113 1.0 3.0 0.00 0.00 0.00 49 1014.8
20260506001836 54 0.0 2.0 0.00 0.00 0.00 49 1014.9
20260506000034 54 0.0 2.0 0.00 0.00 0.00 49 1014.9
20260505235153 54 0.0 1.0 0.00 0.00 0.00 49 1014.8
20260505234232 54 0.0 1.0 0.00 0.00 0.00 49 1015.0
20260505233326 55 0.0 2.0 0.00 0.00 0.00 49 1015.0
20260505232427 55 0.0 1.0 0.00 0.00 0.00 48 1015.0
20260505231525 55 0.0 2.0 0.00 0.00 0.00 48 1015.0
20260505230624 55 0.0 1.0 0.00 0.00 0.00 49 1015.0
20260505225724 55 0.0 2.0 0.00 0.00 0.00 49 1015.2
20260505224823 56 0.0 2.0 0.00 0.00 0.00 50 1015.2
20260505223022 56 0.0 2.0 0.00 0.00 0.00 51 1015.2
20260505222121 56 0.0 2.0 0.00 0.00 0.00 51 1015.1
20260505221221 56 0.0 1.0 0.00 0.00 0.00 51 1015.3
20260505220320 57 0.0 2.0 0.00 0.00 0.00 52 1015.3
20260505215414 57 135 1.0 2.0 0.00 0.00 0.00 52 1015.4
20260505214514 57 135 1.0 2.0 0.00 0.00 0.00 51 1015.2
20260505213635 58 0.0 1.0 0.00 0.00 0.00 50 1015.3
20260505212713 58 0.0 2.0 0.00 0.00 0.00 50 1015.2
20260505211812 58 135 0.0 3.0 0.00 0.00 0.00 50 1015.2
20260505210911 59 135 1.0 2.0 0.00 0.00 0.00 48 1015.1
20260505205110 59 0.0 0.0 0.00 0.00 0.00 47 1015.1
20260505204211 59 0.0 1.0 0.00 0.00 0.00 47 1015.2
20260505203329 60 0.0 2.0 0.00 0.00 0.00 45 1015.1
20260505202408 60 0.0 2.0 0.00 0.00 0.00 44 1015.1
20260505201502 60 0.0 2.0 0.00 0.00 0.00 43 1014.9
20260505200622 60 0.0 2.0 0.00 0.00 0.00 42 1014.9
20260505195721 61 0.0 1.0 0.00 0.00 0.00 41 1014.9
20260505194800 61 135 1.0 2.0 0.00 0.00 0.00 39 1014.8
20260505193900 62 142 1.0 2.0 0.00 0.00 0.00 38 1014.6
20260505192059 62 0.0 1.0 0.00 0.00 0.00 36 1014.5
20260505191158 63 0.0 1.0 0.00 0.00 0.00 35 1014.4
20260505190257 63 158 1.0 3.0 0.00 0.00 0.00 34 1014.5
20260505185356 64 0.0 1.0 0.00 0.00 0.00 34 1014.3
20260505184456 64 0.0 4.0 0.00 0.00 0.00 33 1014.4
20260505183550 64 135 1.0 2.0 0.00 0.00 0.00 32 1014.3
20260505182649 65 135 1.0 2.0 0.00 0.00 0.00 31 1014.2
20260505181748 65 135 1.0 2.0 0.00 0.00 0.00 30 1014.2
20260505180848 67 119 1.0 3.0 0.00 0.00 0.00 28 1014.0
20260505175046 67 158 1.0 2.0 0.00 0.00 0.00 27 1013.7
20260505173106 70 0.0 2.0 0.00 0.00 0.00 22 1013.7
20260505172221 70 113 1.0 4.0 0.00 0.00 0.00 20 1013.4
20260505171300 71 158 2.0 5.0 0.00 0.00 0.00 17 1013.5
20260505170359 72 135 2.0 4.0 0.00 0.00 0.00 12 1013.3
20260505165459 72 0.0 2.0 0.00 0.00 0.00 10 1013.3
20260505164558 73 0.0 1.0 0.00 0.00 0.00 1013.3
20260505163657 74 0.0 1.0 0.00 0.00 0.00 1013.3
20260505162756 74 135 2.0 4.0 0.00 0.00 0.00 1013.3
20260505161856 75 135 0.0 2.0 0.00 0.00 0.00 1013.3
20260505160115 75 0.0 1.0 0.00 0.00 0.00 1013.1